Change the Weather History Date:

Monday, July 22, 2013

  Actual Average Record
Temperature  
Mean Temperature 58 °F 59 °F  
Max Temperature 86 °F 80 °F 93 °F (2006)
Min Temperature 30 °F 38 °F 27 °F (1981)
Degree Days  
Heating Degree Days 7 6  
Month to date heating degree days 96 185  
Since 1 June heating degree days 465 639  
Since 1 July heating degree days 96 185  
Cooling Degree Days 0 0  
Month to date cooling degree days 16 0  
Year to date cooling degree days 19 0  
Since 1 June cooling degree days 19 0  
Growing Degree Days 7 (Base 50)    
Moisture  
Dew Point 19 °F    
Average Humidity 38    
Maximum Humidity 72    
Minimum Humidity 3    
Precipitation  
Precipitation 0.00 in 0.02 in 0.36 in (2008)
Month to date precipitation 0.28 0.51  
Year to date precipitation 6.21 10.43  
Sea Level Pressure  
Sea Level Pressure 29.91 in    
Wind  
Wind Speed 4 mph (WNW)    
Max Wind Speed 16 mph    
Max Gust Speed 25 mph    
T = Trace of Precipitation, MM = Missing Value Source: NWS Daily Summary

Daily Weather History Graph

Daily Weather History Graph

Search for Another Location

Airport or City:

Trip Planner

Search our weather history database for the weather conditions in past years. The results will help you decide how hot, cold, wet, or windy it might be!

Date:

Astronomy

Jul. 22, 2013 Rise Set
Actual Time 6:17 AM MDT 9:14 PM MDT
Civil Twilight 5:42 AM MDT 9:48 PM MDT
Nautical Twilight 4:59 AM MDT 10:32 PM MDT
Astronomical Twilight 4:07 AM MDT 11:23 PM MDT
Moon 8:59 PM MDT (7/22) 6:21 AM MDT (7/22)
Length of Visible Light 16h 05m
Length of Day
14h 57m
Full, 100% of the Moon is Illuminated
Jul 22
Full
Jul 22
Full
Jul 29
Last Quarter
Aug 6
New
Aug 14
First Quarter

Hourly Weather History & Observations

Time (MDT) Temp. Windchill Dew Point Humidity Pressure Visibility Wind Dir Wind Speed Gust Speed Precip Events Conditions
12:51 AM 44.1 °F 42.5 °F 21.9 °F 42% 29.87 in - SE 3.5 mph - N/A   Unknown
1:51 AM 41.0 °F 39.0 °F 21.9 °F 47% 29.88 in - SSE 3.5 mph - N/A   Unknown
2:51 AM 43.0 °F 40.3 °F 23.0 °F 45% 29.87 in - South 4.6 mph - N/A   Unknown
3:51 AM 37.0 °F - 23.0 °F 57% 29.89 in - Calm Calm - N/A   Unknown
4:51 AM 35.1 °F - 24.1 °F 64% 29.91 in - Calm Calm - N/A   Unknown
5:51 AM 30.9 °F - 23.0 °F 72% 29.94 in - Calm Calm - N/A   Unknown
6:51 AM 30.9 °F - 23.0 °F 72% 29.96 in - Calm Calm - N/A   Unknown
7:51 AM 39.9 °F 37.8 °F 25.0 °F 55% 29.94 in - Variable 3.5 mph - N/A   Unknown
8:51 AM 48.9 °F - 27.0 °F 43% 29.97 in - Calm Calm - N/A   Unknown
9:51 AM 59.0 °F - 28.0 °F 31% 29.96 in - Variable 3.5 mph - N/A   Unknown
10:51 AM 71.1 °F - 28.9 °F 21% 29.90 in - Calm Calm - N/A   Unknown
11:51 AM 81.0 °F - 19.9 °F 10% 29.87 in - NNE 8.1 mph 23.0 mph N/A   Unknown
12:51 PM 82.0 °F - 19.0 °F 10% 29.89 in - NW 9.2 mph 20.7 mph N/A   Unknown
1:51 PM 82.9 °F - 19.9 °F 10% 29.89 in - NW 9.2 mph - N/A   Unknown
2:51 PM 84.0 °F - 15.1 °F 8% 29.87 in - NW 8.1 mph 19.6 mph N/A   Unknown
3:51 PM 84.9 °F - 6.1 °F 5% 29.89 in - NW 11.5 mph 23.0 mph N/A   Unknown
4:51 PM 84.0 °F - -2.0 °F 4% 29.90 in - WNW 12.7 mph 18.4 mph N/A   Unknown
5:51 PM 82.0 °F - 8.1 °F 6% 29.92 in - WNW 6.9 mph - N/A   Unknown
6:51 PM 80.1 °F - 10.0 °F 7% 29.92 in - West 5.8 mph 18.4 mph N/A   Unknown
7:51 PM 78.1 °F - 15.1 °F 9% 29.90 in - Calm Calm - N/A   Unknown
8:51 PM 71.1 °F - 19.9 °F 14% 29.91 in - Calm Calm - N/A   Unknown
9:51 PM 60.1 °F - 19.9 °F 21% 29.93 in - Calm Calm - N/A   Unknown
10:51 PM 55.0 °F - 18.0 °F 23% 29.94 in - Calm Calm - N/A   Unknown
11:51 PM 46.9 °F - 19.9 °F 34% 29.94 in - South 3.5 mph - N/A   Unknown